This demonstration page uses our WeatherBlox Daily Observations layout. Learn more.

Left ArrowRight Arrow

39.51506, -84.39828

Hourly Observations for April 24, 2016

Temp ( °F °C ) Dew Point ( °F °C ) Humidity (%) Winds ( mph kmh ) Pressure ( in mb ) Visibility ( mi km ) Precip ( " mm )
12:15 am 00:15 Clear 47 8.2 40 4.2 76 76 undefined N/A 30.12 1020 7 11 N/A
12:35 am 00:35 Clear 47 8.2 40 4.5 78 78 undefined N/A 30.12 1020 10 16 N/A
12:55 am 00:55 Clear 47 8.2 39 4.1 76 76 undefined N/A 30.12 1020 10 16 N/A
1:15 am 01:15 Clear 44 6.6 37 2.8 77 77 undefined N/A 30.12 1020 10 16 N/A
1:35 am 01:35 Clear 47 8.2 38 3.1 71 71 undefined N/A 30.12 1020 10 16 N/A
1:55 am 01:55 Clear 47 8.2 36 2.3 67 67 undefined N/A 30.12 1020 10 16 N/A
2:15 am 02:15 Clear 49 9.6 38 3.1 64 64 undefined N/A 30.12 1020 10 16 N/A
2:35 am 02:35 Clear 43 6.2 35 1.9 74 74 undefined N/A 30.12 1020 10 16 N/A
2:55 am 02:55 Clear 42 5.8 36 2.2 78 78 undefined N/A 30.12 1020 10 16 N/A
3:15 am 03:15 Clear 43 6.1 37 2.5 78 78 undefined N/A 30.12 1020 10 16 N/A
3:35 am 03:35 Clear 42 5.8 36 2.4 79 79 undefined N/A 30.12 1020 10 16 N/A
3:55 am 03:55 Clear 41 5.1 35 1.9 80 80 undefined N/A 30.12 1020 10 16 N/A
4:15 am 04:15 Clear 40 4.7 35 1.7 81 81 N N/A 30.12 1020 10 16 N/A
4:35 am 04:35 Clear 41 4.8 35 1.8 81 81 undefined N/A 30.12 1020 10 16 N/A
4:55 am 04:55 Clear 39 4.1 34 1.1 81 81 undefined N/A 30.15 1021 10 16 N/A
5:15 am 05:15 Clear 39 4 34 1 81 81 undefined N/A 30.15 1021 10 16 N/A
5:35 am 05:35 Clear 39 4 34 1 81 81 undefined N/A 30.15 1021 10 16 N/A
5:55 am 05:55 Clear 39 4 34 1 81 81 undefined N/A 30.15 1021 10 16 N/A
6:15 am 06:15 Clear 39 4 34 1.1 82 82 undefined N/A 30.15 1021 10 16 N/A
6:35 am 06:35 Clear 39 4 34 1.1 82 82 undefined N/A 30.15 1021 10 16 N/A
6:55 am 06:55 Sunny 40 4.5 34 1.2 79 79 undefined N/A 30.18 1022 10 16 N/A
7:15 am 07:15 Sunny 39 4.1 34 0.9 80 80 undefined N/A 30.18 1022 10 16 N/A
7:35 am 07:35 Sunny 40 4.7 35 1.6 81 81 undefined N/A 30.18 1022 10 16 N/A
7:55 am 07:55 Sunny 43 5.9 37 2.7 80 80 undefined N/A 30.15 1021 10 16 N/A
8:15 am 08:15 Sunny 48 9 41 4.8 75 75 undefined N/A 30.15 1021 10 16 N/A
8:35 am 08:35 Sunny 49 9.6 38 3.1 64 64 undefined N/A 30.15 1021 10 16 N/A
8:55 am 08:55 Sunny 50 9.8 37 2.6 61 61 undefined N/A 30.15 1021 10 16 N/A
9:15 am 09:15 Sunny 55 12.5 39 4.1 57 57 undefined N/A 30.15 1021 10 16 N/A
9:35 am 09:35 Sunny 55 12.7 39 3.8 55 55 N N/A 30.15 1021 10 16 N/A
9:55 am 09:55 Sunny 57 13.8 37 2.8 48 48 undefined N/A 30.12 1020 10 16 N/A
10:15 am 10:15 Sunny 58 14.5 38 3.4 48 48 undefined N/A 30.12 1020 10 16 N/A
10:35 am 10:35 Sunny 60 15.3 37 3 44 44 undefined N/A 30.12 1020 10 16 N/A
10:55 am 10:55 Sunny 61 16 38 3.2 43 43 undefined N/A 30.12 1020 10 16 N/A
11:15 am 11:15 Sunny 62 16.8 37 3 40 40 undefined N/A 30.09 1019 10 16 N/A
11:35 am 11:35 Sunny 63 17.4 37 2.6 37 37 N N/A 30.09 1019 10 16 N/A
11:55 am 11:55 Sunny 64 18 37 2.8 36 36 W 3 6 30.09 1019 10 16 N/A
12:15 pm 12:15 Sunny 68 19.9 40 4.3 36 36 WSW 5 7 30.06 1018 10 16 N/A
12:35 pm 12:35 Sunny 69 20.8 41 5.2 36 36 undefined N/A 30.06 1018 10 16 N/A
12:55 pm 12:55 Sunny 69 20.8 42 5.4 37 37 undefined N/A 30.03 1017 10 16 N/A
1:15 pm 13:15 Sunny 69 20.8 40 4.6 35 35 undefined N/A 30.03 1017 10 16 N/A
1:35 pm 13:35 Sunny 69 20.8 41 4.8 35 35 undefined N/A 30.03 1017 10 16 N/A
1:55 pm 13:55 Sunny 69 20.8 38 3.5 32 32 undefined N/A 30.03 1017 10 16 N/A
2:15 pm 14:15 Sunny 69 20.8 38 3.2 31 31 undefined N/A 30.03 1017 10 16 N/A
2:35 pm 14:35 Sunny 72 22.3 36 2.2 27 27 SW 6 9 30.03 1017 10 16 N/A
2:55 pm 14:55 Sunny 74 23.6 38 3.1 26 26 WSW 7 11 30.00 1016 10 16 N/A
3:15 pm 15:15 Sunny 74 23.6 37 2.6 25 25 undefined N/A 30.00 1016 10 16 N/A
3:35 pm 15:35 Sunny 74 23.6 36 2.3 25 25 undefined N/A 30.00 1016 10 16 N/A
3:55 pm 15:55 Sunny 74 23.6 37 2.6 25 25 undefined N/A 29.97 1015 10 16 N/A
4:15 pm 16:15 Sunny 74 23.6 35 1.8 24 24 SW 8 13 29.97 1015 10 16 N/A
4:35 pm 16:35 Sunny 74 23.6 35 1.7 24 24 undefined N/A 29.97 1015 10 16 N/A
4:55 pm 16:55 Sunny 74 23.6 33 0.4 22 22 undefined N/A 29.94 1014 10 16 N/A
5:15 pm 17:15 Sunny 74 23.6 31 -0.6 20 20 undefined N/A 29.94 1014 10 16 N/A
5:35 pm 17:35 Sunny 74 23.6 32 0.1 21 21 undefined N/A 29.94 1014 10 16 N/A
5:55 pm 17:55 Sunny 74 23.6 30 -1.3 19 19 undefined N/A 29.94 1014 10 16 N/A
6:15 pm 18:15 Sunny 74 23.6 29 -1.4 19 19 undefined N/A 29.94 1014 10 16 N/A
6:35 pm 18:35 Sunny 74 23.6 34 1.3 23 23 undefined N/A 29.94 1014 10 16 N/A
6:55 pm 18:55 Sunny 74 23.6 35 1.6 24 24 WSW 5 7 29.94 1014 10 16 N/A
7:15 pm 19:15 Sunny 74 23.6 35 1.6 24 24 N N/A 29.94 1014 10 16 N/A
7:35 pm 19:35 Sunny 74 23.6 40 4.2 28 28 N N/A 29.94 1014 10 16 N/A
7:55 pm 19:55 Sunny 71 21.7 44 6.4 37 37 undefined N/A 29.94 1014 10 16 N/A
8:15 pm 20:15 Sunny 69 20.8 47 8.6 46 46 undefined N/A 29.94 1014 10 16 N/A
8:35 pm 20:35 Clear 64 17.9 46 7.6 51 51 undefined N/A 29.94 1014 10 16 N/A
8:55 pm 20:55 Clear 62 16.8 47 8.1 57 57 undefined N/A 29.94 1014 10 16 N/A
9:15 pm 21:15 Clear 60 15.6 47 8.1 61 61 undefined N/A 29.94 1014 10 16 N/A
9:35 pm 21:35 Clear 60 15.3 47 8.1 62 62 undefined N/A 29.94 1014 10 16 N/A
9:55 pm 21:55 Clear 57 14.1 46 7.8 66 66 undefined N/A 29.97 1015 10 16 N/A
10:15 pm 22:15 Clear 57 13.8 46 8 68 68 N N/A 29.97 1015 10 16 N/A
10:35 pm 22:35 Clear 57 13.8 46 7.7 67 67 undefined N/A 29.97 1015 10 16 N/A
10:55 pm 22:55 Clear 57 13.8 45 7.4 66 66 undefined N/A 29.97 1015 10 16 N/A
11:15 pm 23:15 Clear 55 12.8 44 6.9 68 68 undefined N/A 29.97 1015 10 16 N/A
11:35 pm 23:35 Clear 55 12.5 44 6.9 69 69 undefined N/A 29.97 1015 10 16 N/A
11:55 pm 23:55 Clear 55 12.5 45 7.1 70 70 undefined N/A 29.97 1015 10 16 N/A

Powered by AerisWeather